Vorticity
nan nan nan nan nan nan nan nan nan nan nan nan nan nan nan nan nan nan nan nan nan nan nan nan nan nan nan nan nan nan nan nan nan nan nan nan nan nan nan nan nan nan nan nan nan nan nan
nan 7 6 6 5 6 6 6 7 6 6 7 7 7 6 8 8 8 8 7 5 19 20 8 6 6 6 4 12 9 3 6 11 10 7 7 7 7 12 12 10 7 10 8 6 8 nan
nan 6 7 8 8 8 6 7 8 7 8 7 7 7 7 9 7 7 9 9 9 16 17 10 5 4 7 10 5 7 7 7 12 11 7 5 6 11 8 10 8 9 9 13 13 6 nan
nan 5 8 7 7 8 9 8 6 10 9 8 9 8 8 8 9 9 8 9 8 11 21 17 6 2 6 14 9 7 8 8 6 14 13 10 3 7 8 11 12 9 8 9 16 15 nan
nan 7 8 8 9 7 9 10 10 11 9 10 10 8 9 10 11 9 10 11 8 9 25 18 2 8 7 7 12 9 9 11 9 7 14 12 6 8 7 4 8 8 13 9 6 15 nan
nan 9 7 8 9 9 9 11 12 9 9 10 10 11 9 8 10 11 14 18 17 17 20 10 9 13 15 11 13 11 7 11 11 4 8 4 7 9 8 6 3 6 6 4 10 9 nan
nan 7 9 8 7 11 10 9 10 10 10 11 12 9 10 12 10 11 16 20 19 18 9 5 6 6 16 9 13 11 10 8 6 6 7 7 3 9 7 3 -1 1 7 6 7 5 nan
nan 7 8 9 9 7 9 10 11 11 12 11 9 11 12 11 10 12 16 8 7 12 16 9 5 11 8 3 7 11 5 7 8 7 6 8 11 8 6 8 6 6 8 8 8 4 nan
nan 7 9 10 10 9 10 11 11 11 11 10 10 9 9 11 13 21 14 6 8 8 19 20 12 15 3 1 12 14 3 5 9 6 7 2 11 13 6 7 10 9 10 9 7 11 nan
nan 8 9 10 11 11 10 11 11 10 9 10 11 8 5 10 19 15 13 14 12 5 14 19 13 11 6 7 15 11 5 3 9 10 4 5 8 12 12 11 7 5 10 12 11 12 nan
nan 9 9 10 10 11 11 10 10 9 10 11 8 9 11 17 15 6 9 14 8 7 15 11 9 11 10 10 10 11 7 8 9 7 6 8 13 8 8 12 7 10 5 8 8 6 nan
nan 11 10 9 10 10 10 11 10 10 11 9 7 7 17 29 16 11 6 6 6 11 10 9 14 12 9 4 5 16 6 2 13 17 8 3 5 12 10 8 10 8 9 10 9 11 nan
nan 9 9 9 10 11 9 10 10 11 11 8 8 11 25 22 16 17 8 8 5 12 12 10 16 15 7 5 10 10 6 5 4 7 11 10 7 5 11 10 10 3 7 10 11 11 nan
nan 7 10 9 10 10 10 9 10 11 10 8 9 22 29 14 15 12 3 7 8 12 16 14 16 9 10 4 7 10 5 5 4 3 10 12 16 13 8 6 6 11 5 7 8 7 nan
nan 9 11 11 10 9 9 9 10 11 10 8 24 25 15 15 14 5 7 6 8 10 18 17 5 2 13 5 8 10 7 7 11 6 3 8 8 15 13 9 5 9 9 5 11 10 nan
nan 9 10 11 9 10 9 9 9 10 10 30 27 11 13 14 5 8 9 8 10 10 17 1 1 14 13 10 6 11 11 9 11 10 -2 7 14 12 11 8 11 4 5 7 11 11 nan
nan 9 11 11 8 9 9 9 9 10 23 33 16 11 11 8 4 8 10 7 8 20 6 2 13 12 15 11 6 10 7 9 14 13 5 3 8 7 9 13 8 5 5 3 9 11 nan
nan 9 9 10 9 9 9 8 10 11 29 21 11 11 10 8 8 10 9 8 11 12 5 12 14 14 13 7 7 11 8 8 17 12 12 4 8 10 6 14 10 6 9 5 2 7 nan
nan 9 10 12 9 9 8 9 9 13 26 20 11 11 10 8 8 10 11 14 8 8 13 13 14 17 12 7 6 9 9 10 15 15 14 6 5 7 13 16 14 10 11 9 1 7 nan
nan 11 11 11 10 9 8 9 9 11 24 25 9 8 10 10 12 12 9 11 5 8 12 16 12 15 7 3 13 13 8 11 9 7 12 14 8 9 6 3 7 6 7 8 6 3 nan
nan 10 11 10 10 8 9 9 9 11 25 28 11 10 8 9 13 11 9 10 8 11 5 9 14 14 8 5 10 11 9 9 9 9 5 7 8 10 7 1 2 6 7 9 7 5 nan
nan 9 10 9 10 9 10 8 9 11 29 25 9 9 10 12 11 5 9 8 9 5 9 17 12 5 12 10 12 15 7 8 13 9 6 6 7 10 13 17 12 12 15 13 11 13 nan
nan 9 9 9 10 11 9 8 8 13 26 17 10 10 10 13 10 3 12 10 11 4 7 14 11 6 6 8 11 10 11 12 14 15 11 7 8 9 7 10 20 23 18 16 13 10 nan
nan 9 8 9 9 10 8 8 9 11 20 19 10 10 12 10 10 13 11 9 6 10 14 8 8 10 7 8 9 7 8 10 9 8 10 11 8 6 7 11 15 16 16 8 7 11 nan
nan 9 8 8 8 8 9 8 9 8 16 22 13 9 10 12 13 11 8 9 7 10 9 8 9 8 10 12 11 9 8 10 13 13 10 3 3 9 11 12 9 12 14 14 12 11 nan
nan 9 8 8 8 9 10 10 9 8 16 21 13 11 9 12 14 11 11 8 6 8 7 7 7 9 11 12 11 11 9 10 12 11 16 14 5 2 8 12 12 12 12 13 9 6 nan
nan 9 9 9 8 8 9 10 10 9 15 21 12 11 12 10 7 12 13 10 9 9 11 11 9 7 10 13 10 9 7 12 14 13 9 11 15 11 6 7 8 11 13 7 4 9 nan
nan 10 9 9 9 8 8 10 10 9 13 19 15 9 10 11 7 10 12 13 10 9 12 10 8 9 11 12 10 11 10 8 13 14 10 9 8 11 12 8 10 11 5 10 13 9 nan
nan nan nan nan nan nan nan nan nan nan nan nan nan nan nan nan nan nan nan nan nan nan nan nan nan nan nan nan nan nan nan nan nan nan nan nan nan nan nan nan nan nan nan nan nan nan nan
CAPE
16 23 20 29 25 22 28 37 26 34 42 45 42 42 29 19 24 16 22 16 16 104 51 9 0 0 0 5 0 4 0 0 15 79 55 35 0 0 0 0 0 0 0 0 0 0 0
28 33 56 60 53 39 38 46 44 39 55 57 67 47 42 32 32 43 38 24 10 40 89 22 0 0 0 0 0 0 0 0 0 11 61 57 15 11 12 1 1 1 0 0 0 0 0
62 44 50 49 49 57 86 88 57 81 96 93 79 62 44 39 37 43 52 46 14 5 124 37 4 0 3 0 0 0 0 0 17 9 74 64 12 12 15 9 4 1 0 0 0 0 0
48 36 29 46 66 69 68 83 68 76 102 98 136 121 61 50 46 51 61 60 18 6 79 72 43 1 7 0 0 0 0 0 0 27 43 78 36 15 18 3 3 0 0 0 0 0 0
47 33 50 83 72 89 83 79 89 106 91 124 129 145 127 94 69 60 69 66 33 7 40 75 45 17 1 0 0 0 0 0 0 56 49 100 45 7 15 8 11 1 0 0 0 0 0
39 70 76 53 70 81 83 94 99 129 172 155 150 158 161 128 113 104 92 78 27 2 71 51 40 31 0 0 0 0 0 2 2 2 67 63 2 6 16 14 1 0 0 0 0 0 0
63 36 41 69 72 91 112 111 127 165 163 149 161 165 144 88 152 130 107 79 104 87 49 20 11 0 0 0 0 0 0 5 8 16 22 42 10 1 0 0 0 0 0 0 0 0 0
31 46 52 69 80 102 122 132 145 159 165 178 147 105 44 76 112 154 134 31 1 16 33 12 10 13 0 0 0 0 0 8 6 19 5 1 0 0 0 7 2 0 0 0 0 0 0
36 60 71 79 93 109 120 134 138 151 154 153 63 36 76 85 62 25 110 21 2 0 36 12 16 14 1 0 0 0 0 1 5 7 0 4 0 0 0 0 0 0 0 0 0 0 0
57 58 68 77 86 102 109 119 134 138 122 74 39 65 77 71 36 41 74 81 26 10 2 28 7 25 1 7 1 0 0 4 9 0 0 0 0 0 0 0 0 0 0 0 0 0 0
65 78 70 74 85 91 100 111 132 109 73 48 59 86 113 143 10 0 76 98 54 51 6 11 11 10 0 0 0 2 0 11 4 6 7 0 0 0 0 0 0 0 0 0 0 0 0
71 61 65 73 82 79 102 113 98 67 54 52 51 68 90 36 71 0 18 79 5 4 3 21 4 7 17 32 11 0 6 6 2 2 1 1 1 0 0 0 0 0 0 0 0 0 0
42 55 64 75 75 73 86 94 71 54 43 42 28 60 39 154 27 18 86 0 3 5 3 23 12 21 13 19 22 6 11 3 0 0 5 3 0 1 0 1 1 4 4 0 1 2 0
43 59 72 75 70 66 66 72 43 36 45 64 58 56 112 41 132 90 26 19 8 13 11 0 17 19 7 19 20 16 23 10 7 0 0 2 0 2 0 1 1 3 0 0 0 0 0
50 64 69 77 69 55 52 55 29 17 65 86 45 21 135 106 116 70 26 4 12 2 3 20 30 5 12 13 9 17 6 9 0 5 0 1 0 0 0 1 1 5 1 0 0 0 0
51 56 73 70 66 59 45 46 32 48 78 117 42 14 93 75 96 38 36 13 24 6 5 17 11 10 6 1 4 13 12 1 2 1 0 0 0 0 7 1 1 0 0 0 3 0 0
61 62 68 55 46 54 41 40 32 35 71 41 4 47 75 85 68 18 33 14 30 4 1 3 0 3 1 7 7 4 0 0 2 0 1 0 1 0 0 0 0 0 1 1 1 1 0
57 43 71 58 42 45 33 28 13 25 108 23 4 16 43 75 1 5 47 36 30 8 4 10 4 0 3 3 6 0 0 0 0 0 0 0 1 0 0 0 0 0 0 0 3 0 0
53 65 75 48 37 48 26 18 5 20 63 127 36 52 63 27 30 40 2 24 11 10 17 12 2 3 0 0 0 4 0 0 0 0 1 0 0 0 0 0 0 0 0 0 0 0 0
53 54 70 42 47 50 25 16 4 12 4 201 73 3 17 20 10 7 10 9 3 6 13 4 0 2 2 0 2 0 0 0 0 0 3 0 3 0 0 0 5 0 0 0 1 1 0
42 38 47 48 51 29 22 10 2 20 0 88 78 4 5 11 38 17 12 18 1 19 3 4 8 10 4 0 0 0 0 0 0 0 0 0 1 0 0 0 0 0 0 0 0 1 2
33 32 29 40 37 19 26 9 5 22 0 3 4 10 15 0 11 21 1 8 25 21 12 15 1 0 0 1 0 2 0 0 0 0 0 2 0 1 0 0 0 0 0 0 0 4 6
28 26 21 20 38 41 38 10 2 23 6 10 3 3 7 3 3 7 19 0 10 11 1 1 0 1 3 0 0 0 0 0 0 0 0 9 1 1 0 0 0 0 0 1 0 2 6
29 22 22 17 22 38 29 16 7 10 21 20 12 9 1 12 8 0 11 7 9 1 0 0 0 7 1 0 0 0 0 0 0 0 0 11 13 20 0 0 0 0 0 0 0 0 0
26 24 28 20 9 13 12 11 8 8 11 6 9 9 7 21 1 5 6 13 4 10 4 5 10 3 0 0 0 1 2 1 0 0 0 0 12 19 3 2 0 0 0 0 0 0 0
32 19 31 25 14 12 16 12 7 12 5 0 5 8 8 22 9 5 0 3 0 3 0 7 2 3 0 4 2 1 5 6 3 0 1 5 11 12 1 3 0 0 0 0 0 0 0
44 19 24 26 18 15 20 21 14 13 3 3 4 6 6 12 16 6 2 2 3 5 9 9 9 7 4 12 7 1 0 1 1 3 1 13 5 5 10 6 0 0 0 0 0 0 0
34 17 26 29 17 19 24 23 18 13 5 6 0 2 5 5 2 18 12 6 6 10 14 1 0 5 4 4 3 4 7 8 6 1 0 1 4 2 7 8 0 0 0 0 0 0 0
31 17 26 33 16 21 26 22 23 15 8 7 7 0 4 6 2 10 6 2 1 1 19 1 11 0 5 3 0 6 17 9 0 0 0 0 0 0 0 0 0 0 0 0 0 0 0